Zurück zum Katalog

STARLINK-11154

AktivKommunikationVLEO
NORAD 61059·PAYLOAD·🇺🇸 United States

Gestartet Sep 13, 2024 von Vandenberg Space Force Base

Loading…

Nächste Überflüge (nächste 24 Stunden)

TLE

AktuellSource: CelesTrak SupGP

Epoche: Sep 15, 2026, 02:27 UTC

1 61059C 24164K   26258.10256944  .00062054  00000+0  51098-3 0  2582
2 61059  53.1568  97.7737 0001088  87.5947 322.7377 15.69686951    16

Verfolge STARLINK-11154 in Echtzeit mit AllMySat

Download on the App Store